When you browse on this site, cookies collect data to enhance your experience and personalize the content and advertising you see.
Visit our Privacy Policy to learn more. By continuing to use the site, you agree to this use of cookies and data.
  • In United Kingdom
  • List of Countries
  • For 7 days
  • Water Temperature
  • Satellite Maps
  • Weather Map
  • Weather Widgets
  • user-avatar
    Login

    Hourly Weather Samak

    Today, 19 May, Sunday

    Time Temperature Precipitation Wind Pressure Humidity
    00:00 +15°C° 0.1 mm 2 mps 674 mmHg 65%
    01:00 +15°C° 0.1 mm 2 mps 674 mmHg 65%
    02:00 +14°C° 0 mm 2 mps 674 mmHg 64%
    03:00 +14°C° 0 mm 2 mps 674 mmHg 64%
    04:00 +15°C° 0 mm 2 mps 674 mmHg 62%
    05:00 +16°C° 0.2 mm 2 mps 674 mmHg 60%
    06:00 +18°C° 0.2 mm 1 mps 675 mmHg 58%
    07:00 +20°C° 0.2 mm 1 mps 675 mmHg 55%
    08:00 +20°C° 0.3 mm 1 mps 676 mmHg 55%
    09:00 +20°C° 0.3 mm 2 mps 676 mmHg 55%
    10:00 +20°C° 0 mm 2 mps 676 mmHg 56%
    11:00 +20°C° 0.4 mm 2 mps 676 mmHg 55%
    12:00 +21°C° 0.4 mm 2 mps 676 mmHg 55%
    13:00 +22°C° 0.4 mm 1 mps 676 mmHg 54%
    14:00 +22°C° 0.2 mm 1 mps 675 mmHg 54%
    15:00 +22°C° 0.2 mm 1 mps 675 mmHg 53%
    16:00 +20°C° 0 mm 0 mps 675 mmHg 52%
    17:00 +21°C° 0 mm 1 mps 675 mmHg 56%
    18:00 +20°C° 0 mm 1 mps 675 mmHg 59%
    19:00 +18°C° 0 mm 2 mps 675 mmHg 63%
    20:00 +18°C° 0 mm 2 mps 675 mmHg 62%
    21:00 +18°C° 0 mm 2 mps 675 mmHg 60%
    22:00 +17°C° 0 mm 3 mps 675 mmHg 59%
    23:00 +17°C° 0 mm 3 mps 674 mmHg 58%

    Tomorrow, 20 May, Monday

    Time Temperature Precipitation Wind Pressure Humidity
    00:00 +17°C° 0 mm 3 mps 674 mmHg 56%
    01:00 +17°C° 0 mm 3 mps 674 mmHg 55%
    02:00 +17°C° 0 mm 3 mps 674 mmHg 53%
    03:00 +17°C° 0 mm 3 mps 674 mmHg 52%
    04:00 +16°C° 0 mm 3 mps 674 mmHg 51%
    05:00 +18°C° 0 mm 3 mps 674 mmHg 48%
    06:00 +20°C° 0 mm 2 mps 675 mmHg 46%
    07:00 +23°C° 0 mm 2 mps 675 mmHg 43%
    08:00 +24°C° 0 mm 1 mps 675 mmHg 40%
    09:00 +25°C° 0 mm 1 mps 675 mmHg 36%
    10:00 +26°C° 0 mm 1 mps 675 mmHg 33%
    11:00 +27°C° 0 mm 1 mps 675 mmHg 32%
    12:00 +28°C° 0 mm 2 mps 675 mmHg 32%
    13:00 +28°C° 0 mm 2 mps 675 mmHg 31%
    14:00 +28°C° 0 mm 2 mps 675 mmHg 32%
    15:00 +28°C° 0 mm 1 mps 674 mmHg 33%
    16:00 +28°C° 0 mm 1 mps 674 mmHg 33%
    17:00 +26°C° 0 mm 1 mps 674 mmHg 38%
    18:00 +24°C° 0 mm 2 mps 673 mmHg 43%
    19:00 +21°C° 0 mm 2 mps 673 mmHg 48%
    20:00 +21°C° 0 mm 2 mps 673 mmHg 46%
    21:00 +21°C° 0 mm 2 mps 673 mmHg 44%
    22:00 +20°C° 0 mm 3 mps 673 mmHg 42%
    23:00 +20°C° 0 mm 3 mps 673 mmHg 40%

    Day after tomorrow, 21 May, Tuesday

    Time Temperature Precipitation Wind Pressure Humidity
    00:00 +20°C° 0 mm 3 mps 673 mmHg 39%
    01:00 +20°C° 0 mm 3 mps 673 mmHg 37%
    02:00 +19°C° 0 mm 3 mps 673 mmHg 37%
    03:00 +19°C° 0 mm 3 mps 672 mmHg 36%
    04:00 +19°C° 0 mm 3 mps 672 mmHg 35%
    05:00 +21°C° 0 mm 3 mps 673 mmHg 34%
    06:00 +24°C° 0 mm 2 mps 674 mmHg 32%
    07:00 +26°C° 0 mm 2 mps 674 mmHg 31%
    08:00 +27°C° 0 mm 2 mps 674 mmHg 28%
    09:00 +28°C° 0 mm 2 mps 674 mmHg 25%
    10:00 +29°C° 0 mm 2 mps 675 mmHg 23%
    11:00 +29°C° 0 mm 2 mps 674 mmHg 23%
    12:00 +29°C° 0 mm 2 mps 674 mmHg 23%
    13:00 +30°C° 0 mm 2 mps 674 mmHg 23%
    14:00 +29°C° 0 mm 2 mps 673 mmHg 24%
    15:00 +29°C° 0 mm 2 mps 673 mmHg 25%
    16:00 +29°C° 0 mm 1 mps 673 mmHg 26%
    17:00 +27°C° 0 mm 2 mps 673 mmHg 30%
    18:00 +25°C° 0 mm 2 mps 672 mmHg 34%
    19:00 +23°C° 0 mm 2 mps 672 mmHg 38%
    20:00 +23°C° 0 mm 2 mps 672 mmHg 37%
    21:00 +23°C° 0 mm 2 mps 673 mmHg 35%
    22:00 +21°C° 0 mm 2 mps 673 mmHg 34%
    23:00 +21°C° 0 mm 2 mps 673 mmHg 32%

    22 May, Wednesday

    Time Temperature Precipitation Wind Pressure Humidity
    00:00 +20°C° 0 mm 2 mps 673 mmHg 31%
    01:00 +20°C° 0 mm 2 mps 672 mmHg 30%
    02:00 +20°C° 0 mm 2 mps 672 mmHg 28%
    03:00 +19°C° 0 mm 2 mps 673 mmHg 27%
    04:00 +19°C° 0 mm 2 mps 673 mmHg 26%
    05:00 +21°C° 0 mm 2 mps 673 mmHg 28%
    06:00 +23°C° 0 mm 2 mps 674 mmHg 30%
    07:00 +25°C° 0 mm 2 mps 675 mmHg 33%
    08:00 +25°C° 0 mm 2 mps 675 mmHg 33%
    09:00 +26°C° 0 mm 2 mps 675 mmHg 33%
    10:00 +26°C° 0 mm 3 mps 675 mmHg 34%
    11:00 +27°C° 0 mm 3 mps 675 mmHg 34%
    12:00 +27°C° 0 mm 3 mps 675 mmHg 34%
    13:00 +27°C° 0 mm 3 mps 675 mmHg 34%
    14:00 +27°C° 0 mm 3 mps 674 mmHg 35%
    15:00 +26°C° 0 mm 3 mps 674 mmHg 37%
    16:00 +26°C° 0 mm 3 mps 673 mmHg 38%
    17:00 +24°C° 0 mm 3 mps 673 mmHg 43%
    18:00 +22°C° 0 mm 3 mps 673 mmHg 47%
    19:00 +20°C° 0 mm 3 mps 672 mmHg 52%
    20:00 +20°C° 0 mm 3 mps 673 mmHg 51%
    21:00 +20°C° 0 mm 3 mps 673 mmHg 50%
    22:00 +20°C° 0 mm 3 mps 673 mmHg 49%
    23:00 +19°C° 0 mm 3 mps 672 mmHg 49%

    23 May, Thursday

    Time Temperature Precipitation Wind Pressure Humidity
    00:00 +19°C° 0 mm 3 mps 672 mmHg 49%
    01:00 +19°C° 0 mm 3 mps 672 mmHg 49%
    02:00 +19°C° 0 mm 3 mps 672 mmHg 48%
    03:00 +19°C° 0 mm 3 mps 671 mmHg 48%
    04:00 +19°C° 0 mm 2 mps 671 mmHg 48%
    05:00 +20°C° 0 mm 2 mps 672 mmHg 45%
    06:00 +21°C° 0 mm 2 mps 672 mmHg 43%
    07:00 +23°C° 0 mm 2 mps 673 mmHg 40%
    08:00 +24°C° 0.1 mm 2 mps 673 mmHg 39%
    09:00 +25°C° 0.1 mm 2 mps 673 mmHg 38%
    10:00 +26°C° 0.1 mm 2 mps 673 mmHg 36%
    11:00 +26°C° 0.2 mm 2 mps 673 mmHg 39%
    12:00 +26°C° 0.2 mm 3 mps 673 mmHg 41%
    13:00 +25°C° 0.2 mm 3 mps 673 mmHg 43%
    14:00 +24°C° 0.2 mm 3 mps 672 mmHg 44%
    15:00 +22°C° 0.2 mm 3 mps 672 mmHg 46%
    16:00 +21°C° 0.2 mm 3 mps 672 mmHg 48%
    17:00 +20°C° 0.2 mm 2 mps 672 mmHg 50%
    18:00 +21°C° 0.2 mm 1 mps 672 mmHg 52%
    19:00 +20°C° 0.2 mm 1 mps 673 mmHg 55%
    20:00 +19°C° 0.1 mm 1 mps 673 mmHg 56%
    21:00 +19°C° 0.1 mm 1 mps 673 mmHg 58%
    22:00 +18°C° 0.1 mm 1 mps 673 mmHg 59%
    23:00 +18°C° 0.2 mm 1 mps 673 mmHg 60%

    24 May, Friday

    Time Temperature Precipitation Wind Pressure Humidity
    00:00 +16°C° 0.2 mm 0 mps 673 mmHg 61%
    01:00 +16°C° 0.2 mm 0 mps 673 mmHg 62%
    02:00 +15°C° 0.4 mm 0 mps 673 mmHg 64%
    03:00 +15°C° 0.4 mm 0 mps 673 mmHg 66%
    04:00 +15°C° 0.4 mm 0 mps 673 mmHg 68%
    05:00 +15°C° 0.4 mm 0 mps 673 mmHg 67%
    06:00 +18°C° 0.4 mm 1 mps 674 mmHg 67%
    07:00 +18°C° 0.4 mm 1 mps 674 mmHg 67%
    08:00 +19°C° 0.3 mm 1 mps 675 mmHg 63%
    09:00 +19°C° 0.3 mm 2 mps 675 mmHg 59%
    10:00 +20°C° 0.3 mm 2 mps 675 mmHg 56%
    11:00 +19°C° 0.5 mm 2 mps 675 mmHg 56%
    12:00 +19°C° 0.5 mm 2 mps 675 mmHg 57%
    13:00 +19°C° 0.5 mm 3 mps 675 mmHg 57%
    14:00 +19°C° 0.3 mm 2 mps 675 mmHg 57%
    15:00 +20°C° 0.3 mm 1 mps 675 mmHg 57%
    16:00 +20°C° 0.3 mm 1 mps 675 mmHg 57%
    17:00 +19°C° 0 mm 1 mps 675 mmHg 60%
    18:00 +18°C° 0 mm 1 mps 675 mmHg 64%
    19:00 +16°C° 0 mm 1 mps 675 mmHg 67%
    20:00 +16°C° 0 mm 2 mps 675 mmHg 66%
    21:00 +16°C° 0 mm 2 mps 675 mmHg 64%
    22:00 +16°C° 0 mm 3 mps 675 mmHg 62%
    23:00 +16°C° 0 mm 3 mps 675 mmHg 57%
    Show more